GFSNW_850_spd_057.txt.gz
Wind_Speed
29 25 22 22 23 18 8 4 1 13 4 4 3 4 5 12 14 17 9 5 7 11 12 8 7 9 9 11 14 6 8 2 6 10 18 15 11 3 0 3 7 3 3 8
27 22 19 18 18 21 18 11 0 13 10 4 4 8 16 15 12 15 13 10 11 9 7 5 8 11 17 23 9 5 7 4 5 10 6 5 6 6 6 4 4 10 5 8
25 20 16 14 14 17 16 7 2 11 18 19 14 6 12 12 21 15 12 9 12 12 9 8 4 5 5 13 13 9 8 3 3 6 7 9 12 19 17 5 2 5 6 8
22 19 14 10 12 14 12 7 5 7 4 7 8 13 9 11 9 12 18 7 13 11 6 8 5 10 9 14 9 6 4 4 7 12 13 14 16 18 19 13 9 4 11 14
20 18 13 10 12 13 15 5 5 7 9 10 13 8 8 10 11 9 9 10 13 10 5 7 11 11 9 5 6 6 3 4 7 13 12 17 17 17 20 19 16 15 13 16
18 17 14 11 11 7 8 8 6 1 8 9 6 3 5 10 9 8 9 6 4 6 10 14 19 21 20 15 8 3 1 3 5 7 8 13 12 12 16 18 18 11 12 10
16 15 14 11 14 16 12 5 7 5 4 6 5 7 4 6 2 2 6 5 6 10 15 20 19 21 19 18 14 16 7 5 5 4 5 3 9 8 14 18 17 18 19 13
13 13 14 10 10 14 18 10 8 7 4 7 5 9 9 10 4 1 4 8 9 11 13 4 6 4 4 6 6 5 8 4 4 3 4 9 14 12 10 7 10 10 8 12
10 10 10 13 10 11 14 9 7 5 5 5 3 3 8 5 5 4 2 6 5 12 8 1 3 3 4 4 9 12 10 4 2 2 4 6 6 6 19 5 9 12 17 14
8 7 8 9 9 11 13 13 10 7 5 5 7 6 3 5 4 2 1 6 4 10 3 4 3 2 2 4 6 6 5 4 3 7 6 6 12 25 15 3 5 29 26 17
9 5 5 6 7 8 7 8 17 7 4 2 5 0 3 3 4 2 6 2 9 6 4 3 2 2 2 2 2 5 4 5 3 5 3 5 30 17 6 14 33 24 32 29
10 7 5 4 5 6 7 9 13 13 3 8 10 6 6 3 2 0 5 6 2 3 1 1 0 1 2 2 2 2 1 2 3 3 5 21 16 15 24 21 27 33 30 33
10 9 7 6 6 7 5 2 5 9 9 14 10 11 10 4 5 1 1 5 6 5 6 4 1 2 2 2 1 1 2 2 2 5 3 15 24 20 20 25 29 36 40 36
10 9 7 6 5 6 7 7 2 3 6 5 3 3 5 5 9 4 5 3 1 7 7 4 3 3 7 2 1 2 3 5 3 5 13 22 9 28 25 27 25 29 37 34
10 9 7 6 6 7 8 6 6 2 4 4 12 10 14 12 10 11 10 10 7 9 7 3 3 4 4 4 1 2 5 4 2 3 15 14 19 26 25 25 29 28 37 19
9 9 8 7 7 7 6 2 1 3 4 4 4 3 6 11 14 12 10 9 13 9 5 6 7 8 10 4 4 7 10 11 13 6 15 17 17 20 23 22 23 20 22 20
9 10 10 9 8 9 6 5 8 8 6 3 5 4 12 3 20 12 12 12 14 11 7 6 1 8 7 1 2 6 7 7 11 14 13 11 10 14 19 24 20 17 16 15
11 11 11 10 10 12 12 8 11 11 5 6 3 4 7 16 13 9 16 11 9 8 8 4 11 9 2 2 5 4 5 7 5 8 13 14 12 13 14 22 26 20 19 18
12 13 11 9 5 2 5 11 9 10 8 6 5 3 3 14 12 9 10 9 3 7 6 8 5 3 2 7 6 7 6 4 1 5 5 7 10 13 13 13 25 27 22 20
12 9 4 3 4 8 13 6 1 6 7 6 6 9 6 4 6 6 6 4 2 2 5 11 3 3 7 10 11 10 8 6 5 4 5 8 13 12 12 12 15 23 25 24
7 3 3 8 10 6 2 4 7 6 3 3 9 12 11 6 4 7 9 1 1 2 4 5 3 2 7 11 12 8 8 8 7 4 4 6 9 11 11 10 16 18 21 23
5 12 20 8 3 4 5 1 6 3 3 4 4 5 4 3 2 4 1 2 1 2 10 3 1 2 10 7 11 8 8 8 6 7 7 7 6 7 7 8 9 15 15 21
10 4 4 5 5 1 3 3 2 3 4 5 7 8 4 2 6 5 1 5 2 4 2 2 1 6 7 3 1 5 4 3 6 6 4 6 5 6 11 5 6 12 15 17
3 4 4 4 4 1 5 4 6 12 15 13 17 12 4 2 2 3 2 1 2 2 2 1 1 2 9 6 3 2 7 2 1 1 2 6 4 6 4 3 5 10 9 12
5 6 3 5 7 11 4 5 11 16 12 5 8 3 4 3 3 2 3 2 2 2 3 1 2 5 3 2 1 5 3 7 2 5 5 3 3 7 4 3 3 4 7 6
6 7 7 9 7 9 10 7 10 14 12 7 2 3 3 3 1 2 2 5 3 3 6 3 3 2 4 1 3 3 4 5 3 4 1 5 7 1 7 3 5 1 4 10
6 8 14 7 3 5 0 13 6 11 10 4 2 3 3 1 1 0 1 3 6 18 4 1 3 7 6 3 1 4 5 7 8 3 2 4 3 2 6 6 4 6 4 6

GFSNW_850_spd_060.txt.gz
Wind_Speed
26 24 22 21 19 15 10 5 4 17 5 4 4 4 5 9 14 21 9 10 9 5 8 6 4 5 6 16 7 4 4 3 3 6 5 4 5 8 7 4 1 3 4 4
25 23 20 19 19 22 14 5 7 28 13 4 4 7 9 16 9 8 6 9 8 6 6 5 5 5 17 21 10 5 5 4 5 13 6 8 6 8 7 4 3 3 5 4
24 21 17 17 16 17 15 5 4 10 23 21 6 4 8 4 17 19 15 8 11 8 7 5 5 8 12 19 14 15 7 3 4 4 4 4 7 14 9 5 3 3 2 4
22 20 16 15 15 15 8 7 3 4 3 8 11 11 5 11 6 9 21 7 9 5 6 7 5 7 8 9 19 10 4 2 4 2 4 5 8 14 11 5 4 3 6 6
20 19 16 17 13 11 17 5 5 8 14 11 13 6 5 8 5 6 3 4 5 6 4 1 4 5 4 2 10 7 5 3 5 7 8 9 8 10 12 9 5 5 7 5
17 18 16 17 18 9 9 9 9 3 9 6 5 3 3 5 4 8 10 5 2 5 4 12 14 15 11 9 1 2 0 2 3 3 7 8 7 4 5 8 3 0 4 6
14 16 14 17 19 16 11 11 8 4 2 3 1 5 8 3 4 2 7 9 4 7 14 19 12 9 12 11 13 5 4 5 3 3 4 3 6 7 9 11 3 6 2 7
12 12 13 14 14 14 12 12 8 6 2 4 6 9 5 14 4 2 6 5 5 10 10 4 5 5 5 5 5 9 6 4 2 3 4 7 13 7 7 7 6 12 10 14
8 9 9 11 13 12 10 11 10 4 2 3 2 4 6 2 2 5 5 6 5 11 6 3 4 3 2 5 10 9 7 5 4 2 3 5 1 14 23 17 4 17 17 19
8 6 6 7 9 9 9 12 11 3 2 1 3 4 2 2 2 2 1 1 5 7 3 3 3 1 1 1 4 5 4 4 3 3 4 4 8 21 21 4 4 24 20 23
10 7 4 4 5 7 5 6 11 9 3 1 3 3 5 5 4 3 1 4 5 3 4 2 1 2 1 1 1 0 1 2 1 3 3 5 17 7 2 13 22 20 27 24
9 9 7 5 4 5 6 5 5 7 4 7 8 7 6 8 7 7 3 5 4 4 3 2 3 2 2 3 1 2 3 4 3 6 5 10 12 13 20 15 23 24 27 28
9 9 8 7 5 6 5 4 7 6 6 9 6 8 10 14 6 6 5 6 7 7 7 6 2 2 3 3 3 3 3 5 3 1 5 6 20 11 17 22 26 26 26 30
8 9 9 8 6 6 7 9 3 4 6 4 4 5 10 12 12 14 7 9 11 11 11 5 3 3 9 3 4 3 4 3 5 6 13 12 9 15 19 22 26 27 29 25
8 8 9 8 7 7 7 7 6 3 5 4 13 18 15 16 14 21 14 11 13 13 6 3 3 6 5 4 3 5 11 6 5 5 9 7 16 16 19 20 27 22 24 23
8 9 10 9 8 8 5 3 4 1 1 5 4 7 9 13 20 21 21 15 15 14 7 5 5 6 10 4 3 7 20 16 17 8 8 13 18 15 11 17 23 27 20 19
9 11 12 12 10 8 4 2 2 5 3 3 6 8 4 15 19 22 23 18 17 16 12 7 6 6 12 3 4 8 16 13 13 15 18 20 13 14 15 17 19 29 22 20
11 13 14 12 10 8 4 1 8 8 3 4 2 5 5 9 2 4 9 7 14 11 13 6 5 4 5 3 8 11 9 10 13 12 14 16 17 19 19 16 18 24 29 25
13 14 12 8 2 2 3 4 4 12 6 4 4 2 3 2 0 8 7 10 4 5 6 8 9 2 4 7 14 14 10 8 8 6 10 12 14 14 16 15 16 19 25 25
10 9 3 3 4 6 7 1 3 4 5 5 5 4 3 4 4 3 3 4 3 2 4 8 2 3 9 5 7 7 7 10 9 9 12 13 14 15 16 14 12 14 17 27
4 2 1 4 12 6 3 3 4 4 3 5 6 8 4 6 3 3 1 2 2 4 4 2 3 3 4 3 5 8 10 11 13 14 12 13 13 15 16 12 13 12 18 17
3 7 14 8 3 4 3 2 2 4 3 4 4 10 9 3 3 3 3 2 2 1 6 2 1 4 10 9 10 11 12 12 14 16 13 10 12 13 12 12 11 11 13 18
9 2 2 4 3 1 3 2 4 3 3 8 9 3 5 5 1 2 1 2 1 4 1 2 4 9 14 14 14 12 9 9 8 11 10 9 10 12 10 9 9 11 11 17
3 3 4 4 4 4 3 5 4 12 15 19 15 4 2 3 3 1 1 3 2 1 3 3 3 11 12 13 12 15 11 6 8 9 10 11 10 11 12 11 7 7 7 14
4 4 4 6 8 6 8 15 16 20 19 17 4 4 4 1 3 0 2 1 2 3 3 3 5 6 7 8 6 7 7 9 9 7 8 9 9 10 8 8 4 4 5 9
4 6 4 9 5 2 5 9 18 13 11 10 4 3 3 0 3 1 1 1 3 3 4 5 5 12 11 9 9 6 8 9 7 4 6 8 4 3 7 3 1 4 3 7
5 8 14 23 10 6 17 16 11 6 5 1 2 2 2 3 1 1 2 3 4 13 6 8 6 8 9 13 14 5 4 8 6 5 5 4 3 1 4 1 4 2 2 4

GFSNW_850_spd_063.txt.gz
Wind_Speed
25 23 23 24 18 12 7 13 4 15 3 8 3 3 5 7 15 17 8 5 6 4 7 7 4 6 7 19 6 4 3 4 3 4 6 11 16 4 4 4 5 3 3 2
23 22 21 23 19 15 8 7 11 25 6 4 3 4 5 13 11 8 6 8 7 6 5 5 6 5 12 21 7 3 4 4 3 4 6 8 7 7 5 2 2 2 2 3
22 20 21 20 18 11 6 4 4 10 23 7 5 3 6 4 15 12 9 6 6 6 8 8 4 4 6 11 16 16 5 4 5 4 3 3 3 5 5 5 4 5 2 6
20 21 22 22 14 10 6 6 3 4 3 8 9 6 3 5 5 6 15 6 6 2 5 4 4 5 6 7 16 9 5 4 2 3 2 2 1 4 5 4 2 1 3 4
19 19 22 23 13 10 15 5 4 7 5 5 9 6 3 4 3 4 3 4 3 6 4 3 1 3 3 1 8 5 6 1 3 5 5 4 3 4 5 7 5 6 6 1
17 17 20 24 14 11 10 10 10 3 8 4 4 3 0 1 3 7 5 4 3 3 1 4 8 6 5 3 2 3 3 3 3 4 6 7 5 6 5 2 1 3 4 4
13 15 17 19 17 14 13 12 8 5 2 3 1 2 4 1 3 3 2 5 3 4 11 5 6 7 5 15 12 1 3 3 2 1 5 2 4 7 8 1 7 8 6 9
10 10 13 15 14 12 11 10 6 4 1 1 4 8 4 5 4 3 2 5 3 9 4 4 5 5 5 5 6 8 3 4 2 3 2 5 2 5 5 4 2 7 6 10
7 7 8 10 11 9 8 8 7 4 4 3 1 3 2 1 2 5 3 3 9 6 5 4 3 1 2 3 5 7 4 5 4 2 3 4 0 5 13 3 5 7 14 9
9 5 5 6 8 8 7 8 6 3 2 1 1 2 3 3 2 1 4 4 6 8 3 3 2 1 0 1 1 3 4 3 3 3 3 3 3 14 11 5 2 14 12 19
9 8 4 4 5 7 7 6 6 3 2 4 4 4 3 3 3 3 1 2 4 4 4 3 1 2 2 1 2 1 3 3 2 2 1 6 7 5 1 8 17 16 23 23
7 8 6 4 5 6 6 5 7 8 5 5 9 10 10 7 6 7 4 1 2 4 4 1 2 1 2 3 2 1 3 5 4 7 5 3 1 4 7 8 14 20 24 24
6 7 7 6 5 5 5 7 9 6 5 9 7 9 10 13 10 5 6 5 6 6 5 7 3 2 3 4 5 5 3 4 2 3 4 6 9 11 7 11 17 22 27 26
5 6 7 6 5 5 6 7 7 3 3 2 5 6 8 11 15 13 10 7 13 11 9 4 3 3 9 4 3 3 5 7 5 4 15 20 17 11 11 15 17 22 27 24
4 7 7 7 6 6 6 6 2 1 4 4 9 15 11 17 19 19 17 16 16 15 7 3 4 5 4 2 1 4 12 6 5 6 11 8 10 8 11 17 15 20 25 29
5 8 8 8 6 5 3 2 3 3 4 5 3 9 6 7 24 21 26 23 20 12 8 6 6 6 9 3 4 10 21 19 20 6 3 11 15 18 18 17 18 19 22 26
6 9 10 9 7 4 3 2 2 5 4 3 6 8 3 6 10 21 23 23 12 8 7 11 10 9 15 3 4 6 15 21 19 14 17 17 13 12 14 18 22 21 21 25
8 11 10 7 3 1 2 2 7 8 5 2 2 5 6 2 4 5 5 8 10 8 4 5 7 10 6 4 13 9 14 14 18 16 16 18 16 18 16 14 15 17 18 20
8 10 8 3 3 2 5 7 3 10 5 3 2 2 3 3 2 2 3 3 2 2 4 6 11 3 4 8 11 16 16 13 6 7 12 17 17 18 16 14 15 15 16 22
8 8 1 1 2 6 6 1 2 5 5 5 6 4 3 3 1 2 2 1 2 2 4 8 4 3 8 8 9 12 13 13 9 11 12 9 12 12 13 15 17 16 16 22
3 2 0 3 4 2 1 1 3 3 3 6 6 8 4 4 3 3 1 1 1 1 3 1 2 2 5 6 6 10 12 9 14 17 14 13 11 13 15 18 15 15 15 19
2 4 8 7 2 2 1 2 2 4 4 5 5 5 5 3 4 2 1 1 1 3 2 1 3 4 12 9 8 8 8 10 14 16 19 18 14 10 12 14 15 13 13 18
6 1 1 3 4 1 4 3 3 3 5 6 6 1 2 3 3 2 1 1 3 1 2 2 4 9 11 13 12 9 9 11 13 15 15 17 14 11 12 14 12 10 9 14
2 2 3 4 4 4 5 5 4 8 8 8 9 3 4 3 2 2 2 2 1 2 2 4 3 15 13 10 12 13 13 14 18 16 14 14 12 14 11 7 6 8 6 9
3 3 4 6 10 6 6 12 12 11 11 11 1 3 3 0 2 1 2 1 3 4 4 3 12 12 12 12 13 16 16 15 16 13 12 10 11 13 13 7 6 7 4 4
4 6 4 8 3 5 6 11 11 6 3 2 3 3 2 1 2 1 3 1 3 4 4 16 15 14 15 15 13 11 18 17 18 15 13 13 12 11 11 8 7 3 3 3
4 7 13 20 20 17 16 12 6 2 4 2 4 2 1 2 1 2 3 4 4 11 11 11 12 13 16 12 19 21 18 15 16 21 14 11 12 12 9 9 7 2 2 2

GFSNW_850_spd_069.txt.gz
Wind_Speed
22 27 28 23 12 6 7 7 3 18 12 7 4 4 4 7 15 13 8 5 7 5 7 6 4 4 5 16 6 4 4 4 5 5 2 4 8 4 1 7 6 2 1 5
22 26 25 23 17 9 3 5 9 20 6 4 4 3 4 9 10 10 7 7 7 6 4 5 4 3 5 14 7 4 4 3 5 3 4 2 4 6 3 2 1 2 6 6
21 25 23 24 21 10 4 4 3 10 18 7 3 3 5 3 8 10 9 7 4 3 6 8 4 3 5 10 10 10 2 3 3 1 4 2 3 5 7 3 2 7 3 11
18 22 22 19 21 11 5 6 3 3 4 8 8 4 3 7 5 5 12 7 9 3 3 3 4 4 3 8 12 5 3 4 4 7 5 2 3 1 4 5 4 2 10 8
16 19 20 20 16 16 13 5 4 6 4 3 7 5 5 9 5 6 7 7 9 10 6 5 3 2 3 3 6 4 3 4 4 3 4 3 3 4 2 1 1 3 5 6
13 16 19 18 17 16 9 10 9 6 4 2 2 3 3 4 2 7 8 4 6 10 7 3 4 6 5 3 3 3 2 4 3 4 3 2 5 1 2 4 5 2 5 5
10 11 14 16 17 16 12 8 4 4 3 2 2 3 4 5 4 4 4 6 3 3 10 15 14 13 11 10 8 3 4 4 2 4 4 5 5 3 2 4 7 5 4 6
10 8 10 12 13 14 12 10 5 3 3 3 4 5 5 3 3 3 4 3 2 4 6 5 4 2 1 6 6 6 3 3 3 4 5 2 3 1 1 1 4 5 4 8
9 8 7 8 9 10 9 9 7 3 7 3 4 4 4 3 2 2 2 1 3 4 2 1 3 3 1 2 2 4 4 3 1 3 3 6 5 5 1 3 4 3 4 7
10 9 7 6 6 7 8 7 6 2 2 7 9 3 3 5 3 1 1 1 1 3 2 2 1 2 1 3 4 4 2 2 3 3 3 1 6 5 5 3 4 1 2 5
9 8 8 6 5 5 7 5 5 4 2 6 9 8 7 6 4 2 4 2 1 2 2 1 3 3 3 1 2 3 4 5 3 2 2 5 12 6 5 5 4 3 1 4
7 8 8 7 6 5 6 4 6 7 4 3 9 13 10 6 2 4 6 2 3 3 3 2 2 2 4 4 2 4 3 3 3 6 3 2 11 3 3 3 3 2 2 5
5 7 6 7 6 5 5 6 7 8 3 4 4 7 14 13 10 5 3 3 5 5 5 5 2 2 3 3 4 3 5 5 3 1 7 13 12 10 6 6 4 5 4 6
4 5 6 6 6 6 6 7 6 4 3 1 2 2 2 4 9 13 11 4 8 9 7 3 2 2 7 2 1 4 3 11 6 5 8 4 12 15 10 10 9 8 8 10
4 5 6 7 7 6 6 5 3 5 5 2 4 3 1 4 7 13 14 12 9 9 5 3 2 3 5 2 2 4 12 7 6 5 9 4 5 10 12 11 11 9 9 9
4 6 7 8 8 6 3 1 1 3 7 1 1 3 2 2 6 12 15 15 12 7 5 2 3 6 7 4 4 8 17 15 14 4 12 8 8 11 11 10 8 8 9 9
6 7 8 8 6 3 2 2 2 2 4 1 2 1 1 2 2 6 9 14 8 6 3 5 6 6 9 2 4 2 10 18 17 16 13 8 13 8 11 10 7 9 11 13
6 7 8 7 1 4 2 1 2 2 1 1 1 1 0 0 2 2 5 5 8 6 4 2 2 6 5 4 14 14 15 13 16 22 21 8 8 10 10 10 11 13 14 13
6 7 6 2 3 2 0 1 2 5 1 1 1 1 2 2 2 3 3 4 3 5 4 3 4 2 4 9 9 6 6 10 13 20 20 19 18 14 13 15 14 13 10 10
7 6 1 3 2 2 3 1 2 3 3 3 3 3 2 3 3 3 4 2 1 2 2 1 1 3 18 14 9 6 10 11 12 16 15 18 18 16 11 14 14 11 11 10
4 3 3 3 3 1 2 2 3 3 3 5 6 11 2 4 3 2 2 2 2 2 3 2 1 3 4 2 10 16 10 11 19 18 14 13 12 11 13 11 14 13 10 11
4 2 2 2 2 2 2 2 2 4 3 5 4 5 7 3 4 3 3 2 2 2 3 2 2 4 4 4 12 14 12 13 16 17 17 17 19 18 17 16 14 13 12 13
4 2 2 2 3 2 4 4 2 3 5 7 7 3 3 3 4 1 2 3 1 4 2 3 4 5 6 7 3 7 13 13 15 17 18 17 16 15 17 19 17 14 13 12
2 3 1 4 4 5 5 4 1 1 3 6 7 4 4 3 3 2 2 2 2 3 3 4 2 5 8 6 5 7 6 9 12 14 17 19 18 17 14 15 16 13 11 9
3 3 4 6 8 6 6 7 5 4 3 7 5 3 4 2 2 2 2 3 3 4 2 2 4 6 8 6 7 8 6 6 10 13 14 16 14 15 15 14 15 13 10 9
4 5 4 7 4 7 6 7 8 8 7 8 3 3 3 2 2 3 5 2 4 1 3 4 7 7 5 7 8 9 10 10 11 13 13 13 15 14 12 10 14 14 11 9
4 6 11 12 12 12 12 11 8 9 9 3 4 5 2 4 2 3 3 3 2 2 3 6 6 5 6 7 6 6 8 11 10 10 9 10 11 13 20 21 16 15 13 10

GFSNW_850_spd_072.txt.gz
Wind_Speed
23 25 22 21 12 4 6 4 1 13 7 2 3 7 4 4 9 7 4 5 6 7 3 7 3 5 5 9 5 2 6 4 10 7 5 2 3 4 9 11 13 8 7 7
21 23 22 23 20 8 3 4 6 12 1 3 6 6 8 11 10 10 4 5 6 3 3 4 6 5 4 7 3 3 4 1 8 10 8 5 3 2 4 8 8 17 11 8
19 20 21 21 22 10 5 2 1 8 13 6 5 7 7 5 8 11 9 4 2 3 5 3 8 6 3 4 7 5 4 3 5 2 7 7 8 4 1 8 11 8 6 19
16 19 19 20 20 12 5 5 5 2 4 8 8 7 3 6 3 5 5 5 5 2 3 6 5 4 6 4 5 1 4 4 5 6 6 4 3 3 2 1 5 7 17 16
13 16 17 17 17 13 9 3 1 7 7 3 6 4 6 7 7 3 8 8 8 5 7 5 7 4 0 3 2 2 3 3 5 3 1 1 5 3 2 2 3 6 12 14
11 13 15 17 16 13 8 8 6 3 2 3 1 7 5 5 4 8 7 5 5 7 6 5 5 4 3 4 3 1 2 5 6 9 3 3 8 10 5 6 2 1 10 13
10 9 11 13 14 14 9 5 3 2 5 5 6 6 7 8 7 7 7 3 2 3 6 7 7 7 6 4 2 2 4 4 3 3 6 8 7 4 2 4 6 6 10 8
10 8 8 9 10 11 10 8 3 2 3 6 7 7 7 7 6 7 7 8 5 7 3 4 4 5 5 5 3 2 3 4 3 4 10 4 7 6 6 11 9 3 4 4
10 9 8 7 6 7 8 7 5 2 4 4 6 6 4 3 3 6 6 4 4 5 4 1 3 1 3 4 5 0 3 2 4 4 4 5 10 6 4 3 6 7 4 3
9 9 7 7 6 5 5 4 4 2 1 6 7 1 2 2 2 2 4 5 5 6 1 2 1 2 2 2 3 5 5 4 7 7 5 1 7 7 5 7 5 9 4 2
8 7 7 6 6 4 3 2 3 2 2 5 7 4 4 4 1 1 6 5 4 4 3 2 2 2 3 1 3 3 5 4 4 5 4 6 12 6 4 8 8 5 3 1
6 5 5 5 5 4 3 1 5 3 2 0 7 8 7 4 3 3 4 3 2 2 2 2 3 3 4 4 2 5 4 3 2 4 1 2 15 2 6 4 5 4 3 2
4 3 4 4 4 4 3 3 5 3 2 3 5 8 10 10 7 4 2 2 3 3 0 3 1 2 4 3 4 5 7 7 3 2 6 10 14 9 6 7 6 6 5 3
3 3 4 4 5 5 5 2 3 1 2 4 4 4 2 9 11 11 7 5 6 7 4 3 2 3 5 2 2 5 5 10 8 7 10 5 14 15 11 11 9 7 6 4
2 3 4 5 6 5 5 2 4 4 0 4 3 2 5 4 7 11 12 10 9 5 4 3 2 3 3 4 4 7 13 9 7 6 8 13 4 17 17 13 13 10 8 6
3 3 4 5 6 4 2 2 2 3 4 3 3 1 3 0 8 11 12 13 9 8 5 4 3 4 5 3 3 9 14 19 18 8 8 9 7 10 15 15 13 12 10 9
5 5 6 6 5 3 3 1 3 1 2 2 3 5 4 4 6 6 8 9 6 7 3 6 3 5 9 2 4 14 14 13 14 11 10 9 11 11 13 13 12 12 11 10
6 5 5 5 2 4 1 3 4 2 1 2 2 3 5 6 4 4 5 5 6 6 4 4 3 4 4 4 15 14 13 11 11 16 17 7 10 14 11 14 13 12 12 11
6 5 4 1 3 1 4 4 3 5 2 2 2 2 2 4 3 3 4 6 4 2 4 3 4 3 5 9 15 10 9 15 14 16 18 17 12 12 14 15 15 15 13 11
7 3 2 3 3 4 2 2 1 3 3 4 3 1 2 4 4 3 2 3 2 2 2 6 3 3 17 16 13 10 11 5 7 9 16 18 19 19 18 17 16 17 15 13
3 2 2 4 5 1 2 3 3 2 3 6 4 7 2 2 4 0 2 1 1 2 3 2 2 3 5 7 4 8 14 10 6 12 17 16 18 18 18 19 17 17 17 15
4 4 3 3 3 3 3 3 4 4 2 6 4 3 7 2 2 4 3 2 2 2 5 2 2 4 4 6 6 9 14 13 15 17 19 20 18 19 19 18 18 17 17 16
2 2 3 3 4 2 5 5 4 3 6 8 7 4 4 2 4 2 3 4 2 0 3 3 5 1 4 5 4 7 12 14 14 15 18 20 21 21 21 22 21 19 18 16
2 4 3 5 4 5 5 4 1 3 3 6 5 6 6 5 6 3 3 1 3 3 3 4 4 2 5 6 5 6 6 7 8 9 11 14 16 18 20 23 22 21 20 17
3 4 4 6 8 6 3 3 5 4 4 5 5 4 7 5 3 3 1 2 4 4 4 3 7 3 6 5 5 6 6 7 8 9 12 14 16 17 20 19 21 21 19 18
4 6 5 8 6 8 6 8 7 6 7 5 6 4 4 5 3 3 5 3 4 3 2 5 4 5 3 2 3 5 5 6 8 9 10 11 11 12 15 17 14 15 19 19
4 5 9 12 11 10 9 5 6 7 9 5 4 5 4 5 4 3 3 4 4 9 4 3 3 3 3 3 4 5 6 6 6 6 6 7 9 11 14 17 21 16 13 16

GFSNW_850_spd_075.txt.gz
Wind_Speed
19 20 21 21 14 4 4 6 4 7 3 11 5 9 5 2 4 6 5 7 4 7 11 8 5 5 9 2 5 6 2 8 10 17 4 4 14 15 17 12 19 15 7 8
17 18 20 21 17 7 2 3 5 7 6 4 6 5 8 8 3 5 1 3 1 5 7 2 9 1 3 4 1 3 3 9 5 6 6 10 12 10 11 15 18 14 16 10
14 17 18 19 17 9 3 5 2 6 6 5 5 5 3 6 4 5 3 2 3 11 9 9 4 6 2 2 5 3 5 7 7 6 3 16 19 9 11 14 11 12 8 23
12 14 16 17 14 8 4 7 6 5 7 8 7 4 3 2 3 3 1 2 4 8 6 12 8 6 6 5 3 5 6 10 12 3 8 9 12 14 9 16 17 13 20 19
10 11 13 15 11 8 5 4 2 6 6 1 4 3 7 5 6 5 4 4 2 4 4 9 9 5 5 6 5 5 6 3 10 10 5 5 5 6 6 8 5 8 20 19
11 9 10 13 12 9 5 4 4 5 3 3 3 6 4 5 2 6 6 4 2 5 5 4 6 5 3 4 8 4 6 9 7 14 13 4 10 12 10 8 6 11 14 18
11 10 8 9 11 11 7 4 2 3 4 5 6 6 6 7 7 6 6 3 2 3 2 3 5 3 2 5 5 8 6 9 8 12 9 13 4 1 4 6 5 8 13 13
8 10 8 5 7 8 7 6 3 3 2 7 6 6 8 9 6 6 6 6 3 3 5 5 5 6 5 5 3 6 6 7 7 11 9 5 8 7 7 12 10 2 12 10
6 8 8 5 3 4 6 6 4 3 1 6 6 5 4 3 6 6 6 3 2 3 8 2 7 2 5 4 6 5 4 6 6 7 9 14 13 11 4 2 10 12 8 8
6 5 7 6 3 1 2 3 3 1 5 7 6 2 1 1 1 3 5 5 5 5 2 2 2 0 3 3 4 5 7 7 8 8 7 1 10 8 6 9 6 12 9 7
7 4 4 5 3 1 3 3 1 1 5 6 5 3 3 4 5 4 9 5 6 7 3 2 2 3 3 2 5 6 4 4 4 8 10 10 13 6 6 11 14 13 8 7
5 3 3 4 3 2 3 1 5 1 4 6 5 6 6 3 1 2 4 6 1 5 3 1 3 3 4 5 2 6 4 3 2 4 3 6 6 2 8 7 9 7 7 7
5 1 2 2 2 1 1 1 3 2 5 7 7 9 10 8 5 3 8 2 2 3 5 1 3 2 4 4 6 6 7 6 3 2 7 7 11 8 7 6 6 7 7 7
5 2 2 2 2 2 1 0 4 1 4 7 8 5 4 8 8 7 4 1 1 2 5 7 1 1 4 6 4 4 9 7 8 10 10 5 12 13 10 8 8 8 8 6
3 3 3 4 4 3 3 2 2 1 3 7 6 3 5 4 6 8 8 5 4 3 5 4 2 3 4 10 10 9 12 11 8 7 7 12 12 18 16 13 13 11 10 8
3 2 3 4 4 2 0 5 3 2 3 5 4 5 3 5 8 8 10 9 8 6 7 2 5 2 4 3 3 13 16 14 16 16 15 10 8 7 15 16 14 12 11 9
4 4 5 5 4 3 6 2 4 3 1 5 4 7 6 5 6 8 9 9 8 8 2 9 8 5 6 2 4 13 15 14 18 19 12 11 10 10 12 16 14 12 11 11
4 4 5 4 2 2 1 5 5 3 3 4 3 3 7 11 8 6 7 8 8 7 11 3 3 6 4 4 12 13 15 16 15 13 14 13 13 12 14 14 14 14 13 12
3 3 3 1 2 3 4 8 5 5 4 6 3 3 2 8 8 4 5 5 5 5 5 5 6 3 5 9 12 16 18 15 15 15 12 16 11 13 15 15 16 15 15 14
3 2 1 4 4 5 2 3 4 3 5 7 7 1 2 6 5 5 6 5 4 3 3 7 3 4 16 14 13 12 8 7 10 15 19 19 18 16 15 16 15 16 18 17
2 2 2 2 3 1 2 3 4 5 5 7 7 6 4 3 3 3 5 3 2 2 4 3 2 3 9 3 7 7 6 10 8 9 7 12 12 18 20 20 19 19 19 19
6 4 3 2 3 3 4 3 3 5 4 6 9 6 7 4 4 4 4 2 3 2 6 2 2 5 8 4 8 6 6 10 14 12 12 13 19 20 19 21 21 22 21 22
3 1 3 3 3 3 5 6 4 4 5 8 8 6 5 4 6 3 3 3 2 1 3 3 5 6 4 3 7 6 6 9 13 16 16 16 19 22 23 23 22 21 20 21
3 4 2 5 5 6 7 5 1 5 2 5 5 5 6 5 4 3 3 2 2 1 2 5 3 5 2 4 6 6 8 9 9 10 11 13 15 17 18 20 23 23 24 23
4 4 4 7 11 12 3 1 2 5 6 2 3 3 5 5 3 2 2 3 2 4 7 3 3 1 2 5 6 7 8 8 8 6 8 12 14 15 17 19 20 21 26 34
4 6 7 11 9 10 9 13 11 7 8 2 3 3 3 5 5 5 4 2 5 3 4 4 5 5 5 4 5 6 8 9 11 13 12 13 14 14 15 15 16 17 20 26
5 8 11 12 12 11 11 9 9 2 5 4 2 3 3 4 3 3 1 4 5 12 7 10 6 3 3 4 5 7 10 10 11 11 11 11 10 10 13 16 16 17 19 21